Lexington, NE

11:40 AM CDT on September 30, 2016 (GMT -0500)
Kelly

Weather History for KLXN - January, 2013

Change the Weather History Date:

Friday, January 18, 2013

  Actual Average Record
Temperature  
Mean Temperature 39 °F -  
Max Temperature 58 °F 37 °F 64 °F (2006)
Min Temperature 20 °F 14 °F 6 °F (2002)
Degree Days  
Heating Degree Days 26    
Moisture  
Dew Point 22 °F    
Average Humidity 58    
Maximum Humidity 89    
Minimum Humidity 24    
Precipitation  
Precipitation 0.00 in - - ()
Sea Level Pressure  
Sea Level Pressure 30.02 in    
Wind  
Wind Speed 9 mph (West)    
Max Wind Speed 20 mph    
Max Gust Speed 18 mph    
Visibility 10 miles    
Events      
Averages and records for this station are not official NWS values.
T = Trace of Precipitation, MM = Missing Value Source: NWS Daily Summary

Daily Weather History Graph

Daily Weather History Graph

Search for Another Location

Airport or City:

Trip Planner

Search our weather history database for the weather conditions in past years. The results will help you decide how hot, cold, wet, or windy it might be!

Date:

Astronomy

Jan. 18, 2013 Rise Set
Actual Time 7:59 AM CST 5:40 PM CST
Civil Twilight 7:29 AM CST 6:09 PM CST
Nautical Twilight 6:56 AM CST 6:43 PM CST
Astronomical Twilight 6:23 AM CST 7:16 PM CST
Moon 11:35 AM CST (1/18) 12:34 AM CST (1/18)
Length of Visible Light 10h 40m
Length of Day
9h 40m
Waxing Crescent, 47% of the Moon is Illuminated
Jan 18
Waxing Crescent
Jan 18
First Quarter
Jan 26
Full
Feb 3
Last Quarter
Feb 10
New

Hourly Weather History & Observations

Time (CST) Temp. Windchill Dew Point Humidity Pressure Visibility Wind Dir Wind Speed Gust Speed Precip Events Conditions
12:15 AM 38.5 °F 30.3 °F 24.3 °F 57% 30.20 in 10.0 mi SW 13.8 mph - N/A   Clear
12:35 AM 39.2 °F 31.6 °F 23.9 °F 54% 30.18 in 10.0 mi SW 12.7 mph - N/A   Clear
12:55 AM 38.8 °F 31.6 °F 23.9 °F 55% 30.18 in 10.0 mi SW 11.5 mph 18.4 mph N/A   Clear
1:15 AM 38.3 °F 30.1 °F 23.9 °F 56% 30.18 in 10.0 mi SW 13.8 mph - N/A   Clear
1:35 AM 36.1 °F 29.9 °F 23.9 °F 61% 30.17 in 10.0 mi WSW 8.1 mph - N/A   Clear
1:55 AM 36.5 °F 29.2 °F 23.7 °F 60% 30.17 in 10.0 mi SW 10.4 mph - N/A   Clear
2:15 AM 36.7 °F 29.4 °F 23.9 °F 60% 30.16 in 10.0 mi SW 10.4 mph - N/A   Clear
2:35 AM 35.2 °F 30.3 °F 23.5 °F 62% 30.15 in 10.0 mi West 5.8 mph - N/A   Clear
2:55 AM 34.5 °F 30.4 °F 23.4 °F 64% 30.14 in 10.0 mi West 4.6 mph - N/A   Clear
3:15 AM 32.4 °F 26.9 °F 23.7 °F 70% 30.14 in 10.0 mi West 5.8 mph - N/A   Clear
3:35 AM 32.0 °F 26.4 °F 23.0 °F 69% 30.13 in 10.0 mi West 5.8 mph - N/A   Clear
3:55 AM 29.3 °F - 22.3 °F 75% 30.12 in 10.0 mi Calm Calm - N/A   Clear
4:15 AM 31.3 °F 27.9 °F 22.6 °F 70% 30.11 in 10.0 mi WSW 3.5 mph - N/A   Clear
4:35 AM 30.0 °F 25.2 °F 22.3 °F 73% 30.09 in 10.0 mi WSW 4.6 mph - N/A   Clear
4:55 AM 27.7 °F 20.4 °F 21.6 °F 78% 30.08 in 10.0 mi West 6.9 mph - N/A   Clear
5:15 AM 28.4 °F 20.4 °F 22.3 °F 78% 30.07 in 10.0 mi WSW 8.1 mph - N/A   Clear
5:35 AM 27.5 °F 21.1 °F 22.1 °F 80% 30.07 in 10.0 mi WSW 5.8 mph - N/A   Clear
5:55 AM 27.5 °F 20.2 °F 22.5 °F 81% 30.06 in 10.0 mi SW 6.9 mph - N/A   Clear
6:15 AM 26.6 °F 21.2 °F 21.4 °F 81% 30.05 in 10.0 mi WSW 4.6 mph - N/A   Clear
6:35 AM 24.8 °F 19.1 °F 20.5 °F 84% 30.05 in 10.0 mi West 4.6 mph - N/A   Clear
6:55 AM 24.8 °F 17.9 °F 20.1 °F 82% 30.04 in 10.0 mi West 5.8 mph - N/A   Clear
7:15 AM 23.9 °F 15.8 °F 19.8 °F 84% 30.04 in 10.0 mi West 6.9 mph - N/A   Clear
7:35 AM 22.5 °F 14.1 °F 19.2 °F 87% 30.04 in 10.0 mi West 6.9 mph - N/A   Clear
7:55 AM 21.0 °F 11.4 °F 18.1 °F 89% 30.05 in 10.0 mi NW 8.1 mph - N/A   Clear
8:15 AM 20.7 °F 13.0 °F 17.8 °F 89% 30.04 in 10.0 mi NW 5.8 mph - N/A   Clear
8:35 AM 22.1 °F 12.8 °F 19.0 °F 88% 30.04 in 10.0 mi WNW 8.1 mph - N/A   Clear
8:55 AM 27.1 °F 18.2 °F 22.6 °F 83% 30.05 in 10.0 mi WNW 9.2 mph - N/A   Clear
9:15 AM 29.3 °F 21.5 °F 23.0 °F 77% 30.05 in 10.0 mi West 8.1 mph - N/A   Clear
9:35 AM 30.2 °F 23.4 °F 23.2 °F 75% 30.05 in 10.0 mi WNW 6.9 mph - N/A   Clear
9:55 AM 32.0 °F 24.2 °F 23.7 °F 71% 30.05 in 10.0 mi West 9.2 mph - N/A   Clear
10:15 AM 35.8 °F 27.8 °F 24.3 °F 63% 30.05 in 10.0 mi WNW 11.5 mph - N/A   Clear
10:35 AM 40.1 °F 32.4 °F 24.6 °F 54% 30.05 in 10.0 mi WNW 13.8 mph - N/A   Clear
10:55 AM 43.2 °F 37.0 °F 24.3 °F 47% 30.04 in 10.0 mi WNW 11.5 mph - N/A   Clear
11:15 AM 45.7 °F 39.8 °F 22.6 °F 40% 30.04 in 10.0 mi WNW 12.7 mph - N/A   Clear
11:35 AM 48.0 °F - 20.8 °F 34% 30.02 in 10.0 mi WNW 17.3 mph - N/A   Clear
11:55 AM 48.7 °F - 19.2 °F 31% 30.01 in 10.0 mi WNW 17.3 mph - N/A   Clear
12:15 PM 49.5 °F - 19.8 °F 31% 30.00 in 10.0 mi WNW 19.6 mph - N/A   Clear
12:35 PM 50.4 °F - 21.0 °F 32% 29.99 in 10.0 mi WNW 17.3 mph - N/A   Clear
12:55 PM 51.1 °F - 21.2 °F 31% 29.98 in 10.0 mi WNW 17.3 mph - N/A   Clear
1:15 PM 52.9 °F - 21.9 °F 30% 29.98 in 10.0 mi WNW 12.7 mph - N/A   Clear
1:35 PM 54.1 °F - 22.5 °F 29% 29.97 in 10.0 mi WNW 13.8 mph - N/A   Clear
1:55 PM 55.2 °F - 22.6 °F 28% 29.97 in 10.0 mi WNW 11.5 mph - N/A   Clear
2:15 PM 56.7 °F - 22.8 °F 27% 29.97 in 10.0 mi West 9.2 mph - N/A   Clear
2:35 PM 57.2 °F - 21.9 °F 26% 29.96 in 10.0 mi West 9.2 mph - N/A   Clear
2:55 PM 57.7 °F - 21.6 °F 25% 29.96 in 10.0 mi West 11.5 mph - N/A   Clear
3:15 PM 58.5 °F - 21.4 °F 24% 29.95 in 10.0 mi West 11.5 mph - N/A   Clear
3:35 PM 58.8 °F - 21.7 °F 24% 29.96 in 10.0 mi West 6.9 mph - N/A   Clear
3:55 PM 58.5 °F - 21.6 °F 24% 29.95 in 10.0 mi WSW 6.9 mph - N/A   Clear
4:15 PM 58.1 °F - 21.6 °F 24% 29.95 in 10.0 mi West 9.2 mph - N/A   Clear
4:35 PM 56.8 °F - 20.8 °F 25% 29.95 in 10.0 mi West 9.2 mph - N/A   Clear
4:55 PM 54.9 °F - 20.8 °F 27% 29.95 in 10.0 mi West 9.2 mph - N/A   Clear
5:15 PM 50.5 °F - 21.6 °F 32% 29.95 in 10.0 mi West 9.2 mph - N/A   Clear
5:35 PM 48.9 °F - 20.3 °F 32% 29.96 in 10.0 mi WSW 6.9 mph - N/A   Clear
5:55 PM 42.8 °F 38.0 °F 21.2 °F 42% 29.96 in 7.0 mi SW 8.1 mph - N/A   Clear
6:15 PM 44.2 °F 39.2 °F 21.9 °F 41% 29.95 in 10.0 mi SW 9.2 mph - N/A   Clear
6:35 PM 41.4 °F 36.8 °F 22.8 °F 48% 29.95 in 10.0 mi SW 6.9 mph - N/A   Clear
6:55 PM 38.1 °F 31.2 °F 23.7 °F 56% 29.96 in 10.0 mi SSW 10.4 mph - N/A   Clear
7:15 PM 38.1 °F 32.3 °F 23.5 °F 56% 29.96 in 10.0 mi WSW 8.1 mph - N/A   Clear
7:35 PM 36.7 °F 32.9 °F 23.4 °F 59% 29.96 in 10.0 mi WSW 4.6 mph - N/A   Clear
7:55 PM 36.5 °F 31.8 °F 23.5 °F 59% 29.96 in 10.0 mi SW 5.8 mph - N/A   Clear
8:15 PM 36.3 °F 30.8 °F 23.7 °F 60% 29.96 in 10.0 mi West 6.9 mph - N/A   Clear
8:35 PM 30.7 °F 26.0 °F 23.0 °F 73% 29.96 in 10.0 mi WNW 4.6 mph - N/A   Clear
8:55 PM 31.6 °F 28.3 °F 23.2 °F 71% 29.95 in 10.0 mi West 3.5 mph - N/A   Clear
9:15 PM 33.6 °F 29.4 °F 23.0 °F 65% 29.95 in 10.0 mi SW 4.6 mph - N/A   Clear
9:35 PM 28.6 °F 23.5 °F 23.0 °F 80% 29.95 in 10.0 mi North 4.6 mph - N/A   Clear
9:55 PM 28.6 °F 21.5 °F 22.6 °F 78% 29.95 in 10.0 mi NW 6.9 mph - N/A   Clear
10:15 PM 29.1 °F 22.1 °F 21.9 °F 74% 29.95 in 10.0 mi NNW 6.9 mph - N/A   Clear
10:35 PM 28.9 °F 22.8 °F 22.1 °F 76% 29.93 in 10.0 mi NNW 5.8 mph - N/A   Clear
10:55 PM 28.8 °F 23.7 °F 21.7 °F 75% 29.93 in 10.0 mi NW 4.6 mph - N/A   Clear
11:15 PM 28.8 °F 21.7 °F 21.4 °F 74% 29.94 in 10.0 mi WNW 6.9 mph - N/A   Clear
11:35 PM 29.8 °F 20.3 °F 22.5 °F 74% 29.93 in 10.0 mi WNW 11.5 mph - N/A   Clear
11:55 PM 29.8 °F 22.2 °F 21.6 °F 71% 29.93 in 10.0 mi WNW 8.1 mph - N/A   Clear